KE8FSY Weather Reports


time (UTC)temp
F
wind
direction
speed
knots
gust
knots
rain 1hr
in
rain 24hr
in
rain mn
in
humidity
%
barometer
mb
20260503005504 51 104 0.0 1.7 0.00 0.00 0.00 51 1016.9
20260503005007 51 104 0.0 1.7 0.00 0.00 0.00 50 1016.8
20260503004516 51 104 0.0 1.7 0.00 0.00 0.00 48 1016.7
20260503004006 51 101 0.0 1.7 0.00 0.00 0.00 47 1016.7
20260503003507 51 101 0.0 1.7 0.00 0.00 0.00 48 1016.7
20260503003021 51 101 0.0 1.7 0.00 0.00 0.00 46 1016.6
20260503002510 52 137 0.0 1.7 0.00 0.00 0.00 47 1016.6
20260503002012 52 290 0.0 1.7 0.00 0.00 0.00 46 1016.5
20260503001522 52 290 0.0 0.9 0.00 0.00 0.00 47 1016.5
20260503001012 53 291 0.0 0.0 0.00 0.00 0.00 46 1016.5
20260503000508 53 290 0.0 1.7 0.00 0.00 0.00 48 1016.5
20260503000024 53 291 0.0 1.7 0.00 0.00 0.00 47 1016.3
20260502235507 53 291 0.0 1.7 0.00 0.00 0.00 45 1016.2
20260502235007 53 291 0.0 1.7 0.00 0.00 0.00 44 1016.2
20260502234011 53 291 0.0 1.7 0.00 0.00 0.00 46 1016.2
20260502233508 53 290 0.0 1.7 0.00 0.00 0.00 46 1016.1
20260502233017 53 290 0.0 1.7 0.00 0.00 0.00 45 1016.0
20260502232511 53 290 0.0 1.7 0.00 0.00 0.00 46 1016.0
20260502232009 53 286 0.9 3.5 0.00 0.00 0.00 43 1016.1
20260502231521 54 287 0.9 3.5 0.00 0.00 0.00 42 1016.0
20260502231007 54 285 0.9 2.6 0.00 0.00 0.00 44 1016.0
20260502230507 54 296 0.9 3.5 0.00 0.00 0.00 43 1016.0
20260502230025 54 303 0.9 3.5 0.00 0.00 0.00 42 1015.9
20260502225507 54 302 0.0 2.6 0.00 0.00 0.00 45 1015.9
20260502225006 54 299 0.0 2.6 0.00 0.00 0.00 43 1015.9
20260502224525 54 303 0.9 3.5 0.00 0.00 0.00 43 1015.9
20260502224007 54 284 1.7 3.5 0.00 0.00 0.00 43 1015.9
20260502223513 54 287 0.9 2.6 0.00 0.00 0.00 41 1015.9
20260502223014 54 287 0.0 5.2 0.00 0.00 0.00 43 1015.9
20260502222507 54 283 1.7 5.2 0.00 0.00 0.00 42 1015.9
20260502222008 55 295 0.9 6.1 0.00 0.00 0.00 41 1015.8
20260502221519 55 276 0.9 6.1 0.00 0.00 0.00 43 1015.8
20260502221007 55 301 1.7 5.2 0.00 0.00 0.00 42 1015.7
20260502220509 55 303 0.0 3.5 0.00 0.00 0.00 42 1015.7
20260502220024 55 297 0.9 3.5 0.00 0.00 0.00 43 1015.6
20260502215508 55 283 0.0 3.5 0.00 0.00 0.00 42 1015.6
20260502215009 55 303 0.0 1.7 0.00 0.00 0.00 42 1015.6
20260502214525 55 318 0.9 3.5 0.00 0.00 0.00 41 1015.5
20260502214014 55 303 0.9 4.3 0.00 0.00 0.00 40 1015.5
20260502213510 55 293 0.9 7.8 0.00 0.00 0.00 41 1015.5
20260502213023 55 299 1.7 9.6 0.00 0.00 0.00 40 1015.5
20260502212508 56 312 2.6 9.6 0.00 0.00 0.00 39 1015.5
20260502212005 56 272 1.7 6.1 0.00 0.00 0.00 40 1015.5
20260502211514 56 292 1.7 7.8 0.00 0.00 0.00 41 1015.5
20260502211008 56 266 3.5 7.8 0.00 0.00 0.00 39 1015.4
20260502210509 56 283 2.6 6.1 0.00 0.00 0.00 43 1015.5
20260502210005 56 326 0.9 7.0 0.00 0.00 0.00 42 1015.4
20260502205505 56 290 0.9 7.0 0.00 0.00 0.00 40 1015.4
20260502205005 56 268 1.7 6.1 0.00 0.00 0.00 40 1015.4
20260502204506 56 295 1.7 7.8 0.00 0.00 0.00 39 1015.4
20260502204003 56 297 0.9 7.8 0.00 0.00 0.00 41 1015.4
20260502203503 56 279 0.9 4.3 0.00 0.00 0.00 45 1015.4
20260502203008 56 288 1.7 5.2 0.00 0.00 0.00 40 1015.5
20260502202504 56 262 2.6 7.8 0.00 0.00 0.00 42 1015.6
20260502202005 55 304 1.7 7.8 0.00 0.00 0.00 41 1015.6
20260502201512 55 292 1.7 5.2 0.00 0.00 0.00 40 1015.6
20260502201014 56 305 0.0 5.2 0.00 0.00 0.00 42 1015.7
20260502200509 56 301 0.0 6.1 0.00 0.00 0.00 42 1015.7
20260502200020 56 340 0.9 7.0 0.00 0.00 0.00 42 1015.7
20260502195504 56 224 0.9 7.0 0.00 0.00 0.00 42 1015.8
20260502195003 56 308 1.7 7.8 0.00 0.00 0.00 42 1015.7
20260502194505 56 283 2.6 7.8 0.00 0.00 0.00 39 1015.8
20260502194003 56 283 2.6 7.0 0.00 0.00 0.00 44 1015.8
20260502193503 56 289 1.7 6.1 0.00 0.00 0.00 44 1015.9
20260502193008 56 286 1.7 6.1 0.00 0.00 0.00 43 1016.0
20260502192505 56 288 1.7 6.1 0.00 0.00 0.00 41 1015.9
20260502192012 56 278 2.6 6.1 0.00 0.00 0.00 41 1016.0
20260502191512 56 299 1.7 7.0 0.00 0.00 0.00 41 1016.1
20260502191010 57 270 2.6 7.0 0.00 0.00 0.00 40 1016.1
20260502190511 57 303 3.5 7.0 0.00 0.00 0.00 39 1016.1
20260502190025 57 13 2.6 4.3 0.00 0.00 0.00 41 1016.2
20260502185508 57 135 0.9 7.8 0.00 0.00 0.00 41 1016.1
20260502185010 57 269 1.7 7.8 0.00 0.00 0.00 40 1016.2
20260502184519 57 310 1.7 8.7 0.00 0.00 0.00 40 1016.3
20260502184003 57 264 1.7 8.7 0.00 0.00 0.00 42 1016.3
20260502183504 56 243 1.7 8.7 0.00 0.00 0.00 42 1016.3
20260502183008 56 299 4.3 8.7 0.00 0.00 0.00 44 1016.4
20260502182506 56 262 0.9 3.5 0.00 0.00 0.00 45 1016.3
20260502182003 56 258 0.9 8.7 0.00 0.00 0.00 43 1016.4
20260502181512 55 299 1.7 8.7 0.00 0.00 0.00 44 1016.3
20260502181004 55 282 1.7 7.8 0.00 0.00 0.00 44 1016.6
20260502180506 54 295 2.6 7.0 0.00 0.00 0.00 44 1016.6
20260502170510 56 285 1.7 7.8 0.00 0.00 0.00 41 1016.9
20260502164010 56 274 3.5 12.2 0.00 0.00 0.00 41 1016.9
20260502163508 56 296 0.9 5.2 0.00 0.00 0.00 46 1016.9
20260502163034 56 280 0.9 8.7 0.00 0.00 0.00 42 1016.9
20260502162508 56 272 3.5 8.7 0.00 0.00 0.00 44 1016.9
20260502162003 56 191 1.7 7.8 0.00 0.00 0.00 43 1017.0
20260502161507 56 93 1.7 7.8 0.00 0.00 0.00 42 1017.2
20260502161008 56 286 2.6 7.0 0.00 0.00 0.00 43 1017.2
20260502160505 56 359 0.9 3.5 0.00 0.00 0.00 42 1017.2
20260502152011 56 278 1.7 6.1 0.00 0.00 0.00 50 1017.3
20260502151525 56 272 1.7 4.3 0.00 0.00 0.00 48 1017.4
20260502151005 56 248 0.9 3.5 0.00 0.00 0.00 49 1017.3
20260502150503 55 147 2.6 5.2 0.00 0.00 0.00 49 1017.3
20260502130508 47 201 0.9 3.5 0.00 0.00 0.00 79 1017.6
20260502123509 43 216 0.0 1.7 0.00 0.00 0.00 91 1017.7
20260502123020 42 230 0.0 1.7 0.00 0.00 0.00 91 1017.5
20260502122508 42 305 0.0 1.7 0.00 0.00 0.00 91 1017.4
20260502122017 41 307 0.0 1.7 0.00 0.00 0.00 91 1017.4
20260502121518 41 307 0.0 1.7 0.00 0.00 0.00 91 1017.3
20260502121007 40 310 0.0 1.7 0.00 0.00 0.00 91 1017.6
20260502120507 40 310 0.9 1.7 0.00 0.00 0.00 91 1017.6
20260502115505 39 320 0.9 1.7 0.00 0.00 0.00 91 1017.4
20260502115008 39 339 0.9 1.7 0.00 0.00 0.00 91 1017.4
20260502114513 38 351 0.9 0.9 0.00 0.00 0.00 91 1017.3
20260502114004 38 351 0.0 0.9 0.00 0.00 0.00 91 1017.3
20260502113506 38 351 0.0 0.0 0.00 0.00 0.00 90 1017.2
20260502113014 37 351 0.0 0.0 0.00 0.00 0.00 90 1017.2
20260502112506 37 351 0.0 0.0 0.00 0.00 0.00 89 1017.1
20260502112007 37 351 0.0 0.0 0.00 0.00 0.00 89 1017.1
20260502111517 37 351 0.0 0.0 0.00 0.00 0.00 89 1017.1
20260502111007 37 351 0.0 0.0 0.00 0.00 0.00 89 1017.1
20260502110509 36 351 0.0 0.0 0.00 0.00 0.00 89 1017.0
20260502110022 36 351 0.0 0.0 0.00 0.00 0.00 88 1016.9
20260502105509 36 351 0.0 0.0 0.00 0.00 0.00 88 1016.9
20260502105003 36 351 0.0 0.0 0.00 0.00 0.00 88 1016.9
20260502104507 36 351 0.0 0.0 0.00 0.00 0.00 88 1016.9
20260502104003 36 351 0.0 0.0 0.00 0.00 0.00 88 1017.0
20260502103503 37 351 0.0 0.0 0.00 0.00 0.00 88 1017.0
20260502103015 36 351 0.0 0.0 0.00 0.00 0.00 88 1016.9
20260502102507 37 351 0.0 0.0 0.00 0.00 0.00 88 1016.9
20260502102012 37 351 0.0 0.0 0.00 0.00 0.00 88 1016.9
20260502091006 37 351 0.0 0.0 0.00 0.00 0.00 88 1017.1
20260502090506 37 351 0.0 1.7 0.00 0.00 0.00 88 1017.1
20260502071530 38 56 0.0 1.7 0.00 0.00 0.00 86 1016.7
20260502071006 38 56 0.0 1.7 0.00 0.00 0.00 86 1016.7
20260502070013 38 56 0.0 1.7 0.00 0.00 0.00 86 1016.8
20260502065012 38 56 0.0 0.0 0.00 0.00 0.00 85 1017.0
20260502064008 38 56 0.0 0.0 0.00 0.00 0.00 85 1017.1
20260502063507 38 56 0.0 0.0 0.00 0.00 0.00 85 1017.1
20260502061525 39 56 0.0 1.7 0.00 0.00 0.00 85 1017.2
20260502061011 39 56 0.0 0.0 0.00 0.00 0.00 85 1017.2
20260502060027 39 56 0.0 1.7 0.00 0.00 0.00 84 1017.3
20260502055507 39 56 0.0 1.7 0.00 0.00 0.00 84 1017.2
20260502055008 39 56 0.0 0.0 0.00 0.00 0.00 84 1017.2
20260502054006 39 56 0.0 0.9 0.00 0.00 0.00 83 1017.2
20260502053507 40 56 0.0 0.9 0.00 0.00 0.00 83 1017.3
20260502053020 40 56 0.0 0.0 0.00 0.00 0.00 83 1017.3
20260502052507 40 56 0.0 0.0 0.00 0.00 0.00 83 1017.3
20260502052011 40 56 0.0 0.0 0.00 0.00 0.00 82 1017.4
20260502051524 40 56 0.0 1.7 0.00 0.00 0.00 82 1017.4
20260502051006 40 56 0.0 1.7 0.00 0.00 0.00 82 1017.4
20260502050510 41 56 0.0 0.0 0.00 0.00 0.00 81 1017.5
20260502050034 41 56 0.0 0.0 0.00 0.00 0.00 81 1017.5
20260502045510 41 56 0.0 0.0 0.00 0.00 0.00 80 1017.5
20260502045012 41 56 0.0 0.0 0.00 0.00 0.00 80 1017.4
20260502044528 41 56 0.0 0.0 0.00 0.00 0.00 80 1017.5
20260502043507 41 56 0.0 1.7 0.00 0.00 0.00 80 1017.5
20260502042508 42 56 0.0 1.7 0.00 0.00 0.00 80 1017.7
20260502042012 42 71 0.0 1.7 0.00 0.00 0.00 79 1017.6
20260502041526 42 71 0.0 1.7 0.00 0.00 0.00 78 1017.5
20260502041007 43 71 0.0 0.0 0.00 0.00 0.00 78 1017.7
20260502040508 43 71 0.0 0.0 0.00 0.00 0.00 76 1017.7
20260502040022 43 71 0.0 0.0 0.00 0.00 0.00 77 1017.7
20260502035510 43 71 0.0 0.0 0.00 0.00 0.00 76 1017.6
20260502035013 43 71 0.0 0.0 0.00 0.00 0.00 76 1017.5
20260502034526 44 71 0.0 1.7 0.00 0.00 0.00 75 1017.6
20260502034010 44 71 0.0 1.7 0.00 0.00 0.00 75 1017.5
20260502033514 44 71 0.0 1.7 0.00 0.00 0.00 76 1017.4
20260502033018 44 71 0.0 1.7 0.00 0.00 0.00 75 1017.4
20260502032507 45 71 0.0 1.7 0.00 0.00 0.00 74 1017.3
20260502031008 46 71 0.0 0.0 0.00 0.00 0.00 72 1017.3
20260502030509 46 71 0.0 1.7 0.00 0.00 0.00 71 1017.3
20260502030030 46 71 0.0 1.7 0.00 0.00 0.00 71 1017.4
20260502025508 47 71 0.0 1.7 0.00 0.00 0.00 71 1017.5
20260502025010 47 71 0.0 0.0 0.00 0.00 0.00 68 1017.5
20260502024527 47 71 0.0 0.0 0.00 0.00 0.00 68 1017.5
20260502024009 48 71 0.0 0.0 0.00 0.00 0.00 67 1017.6
20260502023513 48 71 0.0 0.0 0.00 0.00 0.00 67 1017.7
20260502023024 49 71 0.0 0.0 0.00 0.00 0.00 66 1017.7
20260502022509 49 71 0.0 0.9 0.00 0.00 0.00 65 1017.7
20260502022010 49 71 0.0 0.9 0.00 0.00 0.00 65 1017.6
20260502021514 49 71 0.0 0.9 0.00 0.00 0.00 64 1017.5
20260502020507 50 71 0.0 0.0 0.00 0.00 0.00 62 1017.1
20260502015508 50 71 0.0 1.7 0.00 0.00 0.00 62 1016.8
20260502015008 50 71 0.0 1.7 0.00 0.00 0.00 60 1016.8
20260502014529 51 71 0.0 1.7 0.00 0.00 0.00 59 1016.7
20260502014008 51 71 0.0 1.7 0.00 0.00 0.00 59 1016.5
20260502013509 51 71 0.0 1.7 0.00 0.00 0.00 58 1016.5
20260502013023 51 71 0.0 2.6 0.00 0.00 0.00 58 1016.6
20260502012937 51 89 0.9 2.6 0.00 0.00 0.00 58 1016.2
20260502012930 51 52 0.0 2.6 0.00 0.00 0.00 57 1016.1
20260502012927 52 291 0.0 2.6 0.00 0.00 0.00 57 1016.1
20260502012923 52 64 0.9 5.2 0.00 0.00 0.00 56 1016.0
20260502012920 52 84 0.0 1.7 0.00 0.00 0.00 57 1015.9
20260502012916 52 100 0.9 1.7 0.00 0.00 0.00 57 1015.7
20260502012913 52 131 0.9 2.6 0.00 0.00 0.00 56 1015.5
20260502012910 53 129 0.9 2.6 0.00 0.00 0.00 56 1015.5
20260502012907 53 94 0.0 2.6 0.00 0.00 0.00 56 1015.6
20260502012900 53 59 1.7 7.8 0.00 0.00 0.00 57 1015.3
20260502012856 53 126 1.7 9.6 0.00 0.00 0.00 57 1015.3
20260502012852 54 299 1.7 9.6 0.00 0.00 0.00 56 1015.0
20260502012848 54 74 0.0 6.1 0.00 0.00 0.00 57 1015.1
20260502012846 55 29 1.7 4.3 0.00 0.00 0.00 57 1015.0
20260502012842 55 84 0.9 7.0 0.00 0.00 0.00 57 1014.9
20260502012832 55 8 1.7 7.0 0.00 0.00 0.00 56 1014.7
20260502012828 56 118 1.7 3.5 0.00 0.00 0.00 56 1014.6
20260502012826 56 291 1.7 2.6 0.00 0.00 0.00 55 1014.3
20260502012821 56 296 0.9 4.3 0.00 0.00 0.00 55 1014.2
20260502012819 57 52 0.0 4.3 0.00 0.00 0.00 55 1013.8
20260502012813 57 285 1.7 0.0 0.00 0.00 0.00 54 1013.4